[[{"header":{"parameterUnit":"m.s-1","parameterCategory":1,"la1":30.2991,"la2":30.254,"lo1":-89.0895,"lo2":-89.0444,"dy":0.0017,"dx":0.0017,"nx":28,"ny":28,"refTime":"2025-06-15T09:00:00:Z","depth":0,"parameterNumber":2,"parameterNumberName":"U-component_of_WINDS"},"data":[0,0,0,0,0,0,0,0,0,0,0,0,0,0,0,0,0,0,0,0,0,0,0,0,0,0,0,0,0,0,0,0,0,0,0,0,0,0,0,0,0,0,0,0,0,0,0,0,0,0,0,0,0,0,0,0,0,0,2.8412,2.8414,0,2.8528,2.853,2.8531,2.8513,2.8511,2.8509,2.8508,2.8628,2.8633,2.8638,0,0,0,0,0,0,0,0,0,0,0,0,0,2.8176,2.8181,2.8412,2.8414,2.8415,2.8528,2.853,2.8531,2.8514,2.8511,2.8509,2.8507,2.8627,2.8633,2.8639,0,0,0,0,0,0,0,0,0,0,0,0,0,2.8284,2.8182,2.8412,2.842,2.8422,2.8528,2.853,2.8532,2.8514,2.8511,2.8508,2.8506,2.8625,2.8632,2.864,2.8746,0,0,2.8663,2.8666,0,0,0,0,0,0,0,0,2.8278,2.8293,2.8417,2.842,2.8422,2.8503,2.8491,2.8604,2.8515,2.8479,2.8508,2.8504,2.8589,2.86,2.8628,2.8751,2.8756,2.8663,2.8668,2.8671,2.8673,0,0,0,0,0,0,0,2.8271,2.8288,2.8458,2.8419,2.8422,2.8418,2.843,2.8512,2.855,2.8482,2.8481,2.8495,2.859,2.8621,2.8631,2.8758,2.8663,2.867,2.8675,2.8678,2.8973,2.8976,0,0,0,0,0,0,2.8261,2.8282,2.8455,2.8462,2.8341,2.8425,2.8438,2.848,2.8549,2.8556,2.8497,2.8494,2.8609,2.8622,2.8635,2.8762,2.8671,2.8678,2.8683,2.897,2.8974,2.8977,0,0,0,0,0,0,2.8256,2.8276,2.845,2.8372,2.8393,2.8432,2.8479,2.8484,2.8515,2.856,2.8567,2.8522,2.8607,2.8624,2.8718,2.8766,2.8682,2.8689,2.8966,2.8971,2.8976,2.9019,0,0,0,0,0,0,2.8249,2.8275,2.8315,2.8373,2.8398,2.8531,2.8482,2.8489,2.8528,2.8524,2.8585,2.8592,2.8606,2.8707,2.8725,2.8775,2.8695,2.8962,2.8968,2.8974,2.9013,2.9025,2.9035,0,0,0,0,0,2.8241,2.8324,2.8317,2.8338,2.8449,2.8534,2.8548,2.8562,2.8532,2.8573,2.8602,2.859,2.8758,2.8716,2.8737,2.879,2.8959,2.8966,2.8974,2.9009,2.9023,2.9034,0,0,0,0,0,0,2.8272,2.8331,2.8325,2.8429,2.8476,2.853,2.8583,2.8577,2.8634,2.8628,2.8644,2.8658,2.8753,2.8781,2.8733,2.8896,2.8854,2.8866,2.8874,2.8887,2.8898,2.8888,2.8701,0,0,0,0,0,2.8291,2.8354,2.8403,2.849,2.8514,2.8544,2.8582,2.8588,2.8638,2.8658,2.8694,2.8744,2.8807,2.8849,2.891,2.9018,2.903,2.9064,2.9075,2.9083,2.9093,2.9151,2.9166,2.9002,2.9002,2.9002,0,0,2.833,2.8371,2.841,2.8497,2.8534,2.8599,2.8561,2.8632,2.8681,2.8669,2.8759,2.8788,2.8844,2.8944,2.899,2.8971,2.9141,2.9093,2.9099,2.9105,2.916,2.9175,2.9189,2.9007,2.9006,2.9005,0,0,2.8436,2.8473,2.8549,2.8587,2.8644,2.8663,2.8682,2.8737,2.8755,2.8845,2.8837,2.8896,2.9006,2.9045,2.908,2.9199,2.9191,2.9219,2.9274,2.933,2.9343,2.9355,2.9396,2.9411,2.9229,2.9229,2.9229,0,2.8478,2.8576,2.8589,2.866,2.8698,2.869,2.8767,2.8803,2.8878,2.8904,2.8881,2.9018,2.9055,2.9164,2.9193,2.9222,2.9243,2.9212,2.934,2.9352,2.9363,2.9402,2.9418,2.9232,2.9232,2.9232,2.9231,0,2.8624,2.8692,2.8747,2.8817,2.8862,2.8936,2.896,2.9003,2.9006,2.9028,2.912,2.9164,2.9233,2.926,2.9264,2.937,2.9355,2.9336,2.9295,2.9381,2.9418,2.9434,2.9237,2.9235,2.9235,2.9234,0,0,2.8753,2.8829,2.8849,2.888,2.8942,2.8995,2.9068,2.9135,2.9171,2.9223,2.9284,2.9377,2.9359,2.9398,2.9407,2.9456,2.9546,2.943,2.9432,2.9449,2.9663,2.9676,2.9694,2.9541,2.9544,2.9546,2.9658,0,2.8863,2.8992,2.9005,2.912,2.9182,2.9175,2.9239,2.9284,2.9306,2.9362,2.9387,2.9452,2.9424,2.9448,2.9496,2.9525,2.9589,2.9517,2.9597,2.96,2.9582,2.9714,2.9728,2.9832,2.9673,2.9676,2.9677,0,2.9009,2.9064,2.9184,2.9236,2.9263,2.932,2.9381,2.9436,2.9486,2.9499,2.9542,2.9544,2.9619,2.9575,2.9678,2.9629,2.9663,2.9682,2.9686,2.9693,2.9643,2.9723,2.9865,2.988,2.9701,2.9699,2.9697,0,2.9089,2.9193,2.9278,2.9305,2.9368,2.9408,2.9436,2.9484,2.9523,2.9577,2.9602,2.9665,2.97,2.9748,2.9766,2.9733,2.9869,2.9827,2.9881,2.9881,2.9909,2.9907,3.0057,2.9933,2.9933,2.9933,2.9932,0,2.921,2.9284,2.9314,2.9367,2.9449,2.9464,2.9545,2.9571,2.9613,2.9671,2.9669,2.9723,2.9744,2.9802,2.9817,2.9899,2.9915,2.9927,2.993,2.9927,2.9925,2.9949,2.9941,2.9937,2.9936,2.9935,2.9934,0,2.9313,2.9336,2.9429,2.948,2.9495,2.9553,2.9597,2.9648,2.9669,2.9742,2.976,2.9793,2.9861,2.9884,2.9966,2.9976,3.0071,3.0069,3.0054,3.0054,3.0107,3.0101,3.0277,3.03,3.0161,3.0163,3.0164,0,2.9388,2.9445,2.9502,2.954,2.9569,2.963,2.967,2.9686,2.9728,2.9789,2.9832,2.9898,2.9952,3.006,3.0092,3.0154,3.0152,3.021,3.0162,3.0156,3.0152,3.0147,3.0152,3.0218,3.022,3.0221,3.0222,0,2.9519,2.9527,2.9584,2.9644,2.9691,2.974,2.9787,2.9818,2.9842,2.9888,2.9956,2.9998,3.0081,3.0147,3.021,3.0239,3.0235,3.0237,3.0252,3.0249,3.0237,3.0243,3.0077,3.0232,3.0231,3.023,3.023,3.0229,2.961,2.9659,2.9706,2.9769,2.9806,2.985,2.9899,2.9926,2.9983,3.0051,3.0058,3.0131,3.0179,3.0264,3.0296,3.0353,3.0337,3.036,3.0366,3.0371,3.0374,3.0229,3.0365,3.0365,3.0364,3.0364,3.0364,0,2.9739,2.9769,2.9826,2.9891,2.9941,2.9931,2.9983,3.0024,3.0088,3.0133,3.0186,3.0264,3.0327,3.0364,3.0428,3.0466,3.0466,3.0482,3.0479,3.0486,3.0386,3.0365,3.0482,3.0482,3.0482,3.0482,3.0482,3.0482,2.9812,2.9894,2.9908,3.0008,3.0038,3.0108,3.0138,3.0178,3.0214,3.0301,3.0353,3.0376,3.0418,3.0484,3.0542,3.0551,3.0574,3.0592,3.0599,3.0505,3.0493,3.0481,3.0462,3.0597,3.0597,3.0695,3.0695,3.0696]},{"header":{"parameterUnit":"m.s-1","parameterCategory":1,"la1":30.2991,"la2":30.254,"lo1":-89.0895,"lo2":-89.0444,"dy":0.0017,"dx":0.0017,"nx":28,"ny":28,"refTime":"2025-06-15T09:00:00:Z","depth":0,"parameterNumber":3,"parameterNumberName":"V-component_of_WINDS"},"data":[0,0,0,0,0,0,0,0,0,0,0,0,0,0,0,0,0,0,0,0,0,0,0,0,0,0,0,0,0,0,0,0,0,0,0,0,0,0,0,0,0,0,0,0,0,0,0,0,0,0,0,0,0,0,0,0,0,0,1.3311,1.3311,0,1.3388,1.3389,1.339,1.3376,1.3374,1.3373,1.3371,1.3454,1.3457,1.3461,0,0,0,0,0,0,0,0,0,0,0,0,0,1.3151,1.3154,1.331,1.3311,1.3312,1.3388,1.3389,1.339,1.3376,1.3374,1.3372,1.3371,1.3453,1.3457,1.3461,0,0,0,0,0,0,0,0,0,0,0,0,0,1.3224,1.3155,1.331,1.3314,1.3315,1.3388,1.3389,1.3391,1.3376,1.3374,1.3372,1.337,1.3451,1.3456,1.3462,1.3536,0,0,1.3478,1.348,0,0,0,0,0,0,0,0,1.322,1.323,1.3313,1.3314,1.3315,1.337,1.3364,1.344,1.3377,1.3353,1.3371,1.3369,1.3428,1.3435,1.3454,1.354,1.3544,1.3478,1.3481,1.3484,1.3485,0,0,0,0,0,0,0,1.3215,1.3227,1.3341,1.3314,1.3316,1.3313,1.3321,1.3378,1.3401,1.3355,1.3354,1.3363,1.3428,1.3449,1.3456,1.3545,1.3478,1.3483,1.3486,1.3488,1.3697,1.3699,0,0,0,0,0,0,1.3208,1.3222,1.3339,1.3344,1.3261,1.3317,1.3326,1.3355,1.3401,1.3406,1.3365,1.3362,1.3441,1.345,1.3459,1.355,1.3484,1.3488,1.3491,1.3694,1.3697,1.37,0,0,0,0,0,0,1.3205,1.3219,1.3336,1.3283,1.3298,1.3322,1.3354,1.3357,1.3378,1.3408,1.3413,1.3382,1.344,1.3452,1.3517,1.3553,1.3491,1.3496,1.3691,1.3695,1.3698,1.3732,0,0,0,0,0,0,1.32,1.3218,1.3246,1.3284,1.33,1.3392,1.3356,1.336,1.3387,1.3384,1.3425,1.343,1.3439,1.3509,1.3522,1.3559,1.35,1.3688,1.3693,1.3697,1.3728,1.3737,1.3744,0,0,0,0,0,1.3195,1.3253,1.3247,1.3261,1.3336,1.3394,1.3404,1.3412,1.339,1.3419,1.3438,1.3429,1.3546,1.3516,1.3531,1.3569,1.3686,1.3692,1.3697,1.3725,1.3735,1.3744,0,0,0,0,0,0,1.3219,1.3258,1.3252,1.3324,1.3356,1.3392,1.3428,1.3423,1.3462,1.3458,1.3468,1.3477,1.3544,1.3563,1.3529,1.3644,1.3613,1.3622,1.3629,1.3639,1.3647,1.3642,1.3504,0,0,0,0,0,1.3233,1.3276,1.3308,1.3368,1.3384,1.3403,1.3429,1.3433,1.3467,1.348,1.3504,1.3538,1.3583,1.3612,1.3654,1.373,1.374,1.3764,1.3772,1.3778,1.3786,1.3828,1.3839,1.3717,1.3717,1.3717,0,0,1.3262,1.3288,1.3315,1.3374,1.3399,1.3444,1.3415,1.3464,1.3499,1.3488,1.3551,1.357,1.3609,1.368,1.3712,1.3698,1.3821,1.3785,1.379,1.3794,1.3835,1.3846,1.3857,1.3721,1.372,1.372,0,0,1.3338,1.3362,1.3415,1.3441,1.3479,1.3491,1.3504,1.354,1.3552,1.3616,1.3609,1.365,1.3726,1.3754,1.3778,1.3864,1.3858,1.3878,1.3919,1.396,1.397,1.3979,1.401,1.4021,1.3885,1.3885,1.3885,0,1.337,1.3437,1.3443,1.3493,1.352,1.3511,1.3565,1.359,1.3641,1.3659,1.3642,1.3738,1.3763,1.3841,1.3862,1.3881,1.3897,1.3874,1.3968,1.3977,1.3985,1.4015,1.4027,1.3888,1.3887,1.3887,1.3887,0,1.3474,1.3521,1.356,1.3608,1.3638,1.369,1.3705,1.3735,1.3736,1.375,1.3816,1.3845,1.3894,1.3912,1.3914,1.3991,1.3981,1.3965,1.3935,1.3999,1.4027,1.4039,1.3891,1.389,1.3889,1.3889,0,0,1.3569,1.3619,1.3634,1.3655,1.3697,1.3734,1.3785,1.3832,1.3858,1.3893,1.3937,1.4002,1.3988,1.4015,1.402,1.4056,1.4123,1.4036,1.4037,1.4052,1.421,1.4222,1.4235,1.4118,1.412,1.4122,1.4207,0,1.365,1.374,1.3747,1.383,1.3873,1.3866,1.3911,1.3941,1.3956,1.3996,1.4013,1.4059,1.4036,1.4053,1.4088,1.4107,1.4155,1.4101,1.4161,1.4163,1.4152,1.425,1.4263,1.4342,1.4219,1.422,1.4222,0,1.3756,1.3794,1.388,1.3915,1.3934,1.3974,1.4018,1.4056,1.409,1.4099,1.4129,1.4128,1.4182,1.4149,1.4224,1.4187,1.4211,1.4225,1.4228,1.4235,1.4197,1.4261,1.4367,1.4379,1.4239,1.4238,1.4237,0,1.3818,1.389,1.3951,1.397,1.4012,1.4041,1.406,1.4092,1.412,1.4158,1.4176,1.422,1.4245,1.4279,1.4291,1.4265,1.4366,1.4333,1.4375,1.4375,1.4397,1.4396,1.4511,1.4412,1.4411,1.4411,1.4411,0,1.3908,1.3961,1.3979,1.4017,1.4076,1.4084,1.4143,1.4161,1.419,1.4231,1.4227,1.4266,1.4279,1.432,1.433,1.4391,1.4402,1.441,1.4412,1.4411,1.441,1.4428,1.4424,1.4414,1.4414,1.4413,1.4413,0,1.3987,1.4001,1.4067,1.4102,1.4111,1.4154,1.4184,1.4221,1.4234,1.4287,1.43,1.4321,1.437,1.4385,1.4443,1.445,1.4521,1.4518,1.451,1.451,1.4552,1.4548,1.4683,1.4701,1.4589,1.459,1.4591,0,1.4044,1.4085,1.4124,1.4151,1.4171,1.4214,1.4242,1.4251,1.4281,1.4323,1.4355,1.4403,1.4442,1.452,1.4542,1.4587,1.4585,1.4629,1.4592,1.4589,1.4587,1.4585,1.4589,1.4636,1.4638,1.4639,1.4639,0,1.4144,1.4149,1.4189,1.4232,1.4265,1.43,1.4333,1.4355,1.4369,1.4403,1.4452,1.4482,1.4541,1.4589,1.4635,1.4655,1.465,1.4651,1.4663,1.4663,1.4656,1.4661,1.453,1.4648,1.4647,1.4646,1.4646,1.4646,1.4215,1.4251,1.4284,1.4329,1.4354,1.4385,1.4421,1.4439,1.448,1.4529,1.4532,1.4585,1.4619,1.468,1.4702,1.4745,1.4732,1.475,1.4754,1.4759,1.4762,1.4649,1.4753,1.4753,1.4753,1.4752,1.4752,0,1.4316,1.4336,1.4377,1.4423,1.4459,1.4449,1.4485,1.4516,1.4563,1.4595,1.4633,1.469,1.4736,1.4761,1.4807,1.4836,1.4835,1.4848,1.4847,1.4852,1.4771,1.4756,1.4848,1.4848,1.4848,1.4848,1.4848,1.4848,1.4372,1.4433,1.4441,1.4515,1.4535,1.4587,1.4608,1.4637,1.4662,1.4726,1.4764,1.4779,1.4809,1.4857,1.4899,1.4905,1.4923,1.4938,1.4943,1.4867,1.4857,1.4848,1.4834,1.4941,1.4941,1.502,1.502,1.5021]}]]